Time,TemperatureF,DewpointF,PressureIn,WindDirection,WindDirectionDegrees,WindSpeedMPH,WindSpeedGustMPH,Humidity,HourlyPrecipIn,Conditions,Clouds,dailyrainin,SoftwareType,DateUTC
2013-09-13 00:13:00,58.0,50.0,30.03,NW,306,0.0,2.0,76,0.00,,,0.11,,2013-09-13 05:13:00,
2013-09-13 00:22:00,57.0,50.0,30.03,North,360,0.0,3.0,77,0.00,,,0.11,,2013-09-13 05:22:00,
2013-09-13 00:43:00,57.0,50.0,30.03,West,271,0.0,3.0,77,0.00,,,0.11,,2013-09-13 05:43:00,
2013-09-13 00:53:00,57.0,50.0,30.03,NNE,14,1.0,5.0,77,0.00,,,0.11,,2013-09-13 05:53:00,
2013-09-13 01:12:00,57.0,50.0,30.03,NW,317,0.0,4.0,77,0.00,,,0.11,,2013-09-13 06:12:00,
2013-09-13 01:22:00,56.0,50.0,30.03,NW,319,0.0,3.0,79,0.00,,,0.11,,2013-09-13 06:22:00,
2013-09-13 01:52:00,56.0,50.0,30.03,NNE,27,2.0,6.0,79,0.00,,,0.11,,2013-09-13 06:52:00,
2013-09-13 02:11:00,56.0,50.0,30.03,NNW,347,1.0,5.0,80,0.00,,,0.11,,2013-09-13 07:11:00,
2013-09-13 02:22:00,56.0,50.0,30.03,North,355,2.0,8.0,79,0.00,,,0.11,,2013-09-13 07:22:00,
2013-09-13 02:42:00,56.0,50.0,30.03,North,350,3.0,7.0,79,0.00,,,0.10,,2013-09-13 07:42:00,
2013-09-13 02:52:00,55.0,49.0,30.04,NNE,13,2.0,6.0,80,0.00,,,0.10,,2013-09-13 07:52:00,
2013-09-13 03:11:00,55.0,50.0,30.04,NNE,19,3.0,6.0,82,0.00,,,0.10,,2013-09-13 08:11:00,
2013-09-13 03:22:00,55.0,50.0,30.04,NNW,331,1.0,6.0,83,0.00,,,0.10,,2013-09-13 08:22:00,
2013-09-13 03:42:00,54.0,49.0,30.04,North,355,2.0,5.0,84,0.00,,,0.05,,2013-09-13 08:42:00,
2013-09-13 03:52:00,54.0,50.0,30.05,NNE,16,2.0,5.0,85,0.00,,,0.05,,2013-09-13 08:52:00,
2013-09-13 04:12:00,54.0,50.0,30.05,NNE,22,0.0,3.0,86,0.00,,,0.05,,2013-09-13 09:12:00,
2013-09-13 04:21:00,54.0,50.0,30.06,North,360,0.0,3.0,87,0.00,,,0.05,,2013-09-13 09:21:00,
2013-09-13 04:43:00,53.0,49.0,30.06,North,360,0.0,2.0,87,0.00,,,0.01,,2013-09-13 09:43:00,
2013-09-13 04:53:00,53.0,50.0,30.07,North,355,0.0,1.0,88,0.00,,,0.01,,2013-09-13 09:53:00,
2013-09-13 05:13:00,53.0,50.0,30.07,NNE,22,0.0,3.0,89,0.00,,,0.01,,2013-09-13 10:13:00,
2013-09-13 05:23:00,53.0,50.0,30.08,NNE,23,1.0,4.0,90,0.00,,,0.01,,2013-09-13 10:23:00,
2013-09-13 05:42:00,53.0,50.0,30.08,NNE,16,2.0,5.0,90,0.00,,,0.01,,2013-09-13 10:42:00,
2013-09-13 05:52:00,54.0,51.0,30.08,North,9,1.0,7.0,89,0.00,,,0.01,,2013-09-13 10:52:00,
2013-09-13 06:12:00,53.0,50.0,30.09,NNE,19,1.0,6.0,89,0.00,,,0.01,,2013-09-13 11:12:00,
2013-09-13 06:22:00,53.0,50.0,30.09,NNE,15,1.0,7.0,89,0.00,,,0.01,,2013-09-13 11:22:00,
2013-09-13 06:42:00,53.0,50.0,30.09,NNW,335,2.0,6.0,89,0.00,,,0.00,,2013-09-13 11:42:00,
2013-09-13 06:52:00,53.0,49.0,30.10,North,5,2.0,6.0,87,0.00,,,0.00,,2013-09-13 11:52:00,
2013-09-13 07:12:00,53.0,48.0,30.11,NNE,12,3.0,8.0,84,0.00,,,0.00,,2013-09-13 12:12:00,
2013-09-13 07:22:00,53.0,47.0,30.11,North,5,3.0,5.0,81,0.00,,,0.00,,2013-09-13 12:22:00,
2013-09-13 07:42:00,53.0,47.0,30.12,NW,320,3.0,7.0,79,0.00,,,0.00,,2013-09-13 12:42:00,
2013-09-13 07:52:00,53.0,46.0,30.12,North,10,2.0,6.0,78,0.00,,,0.00,,2013-09-13 12:52:00,
2013-09-13 08:11:00,53.0,46.0,30.12,North,5,2.0,8.0,77,0.00,,,0.00,,2013-09-13 13:11:00,
2013-09-13 08:21:00,53.0,46.0,30.13,North,355,3.0,6.0,77,0.00,,,0.00,,2013-09-13 13:21:00,
2013-09-13 08:52:00,54.0,46.0,30.13,North,355,4.0,9.0,74,0.00,,,0.00,,2013-09-13 13:52:00,
2013-09-13 09:11:00,56.0,46.0,30.13,NNE,23,4.0,9.0,69,0.00,,,0.00,,2013-09-13 14:11:00,
2013-09-13 09:22:00,57.0,46.0,30.13,North,11,4.0,9.0,66,0.00,,,0.00,,2013-09-13 14:22:00,
2013-09-13 09:42:00,58.0,46.0,30.14,North,5,4.0,11.0,65,0.00,,,0.00,,2013-09-13 14:42:00,
2013-09-13 09:52:00,58.0,45.0,30.14,North,355,5.0,11.0,61,0.00,,,0.00,,2013-09-13 14:52:00,
2013-09-13 10:11:00,59.0,45.0,30.15,North,355,6.0,12.0,59,0.00,,,0.00,,2013-09-13 15:11:00,
2013-09-13 10:22:00,60.0,44.0,30.15,NNE,20,6.0,12.0,55,0.00,,,0.00,,2013-09-13 15:22:00,
2013-09-13 10:43:00,60.0,43.0,30.14,NNE,30,6.0,10.0,54,0.00,,,0.00,,2013-09-13 15:43:00,
2013-09-13 10:53:00,61.0,44.0,30.14,NE,49,4.0,9.0,53,0.00,,,0.00,,2013-09-13 15:53:00,
2013-09-13 11:12:00,62.0,44.0,30.14,NNE,23,3.0,10.0,52,0.00,,,0.00,,2013-09-13 16:12:00,
2013-09-13 11:24:00,62.0,44.0,30.14,ENE,74,5.0,10.0,51,0.00,,,0.00,,2013-09-13 16:24:00,
2013-09-13 11:43:00,63.0,46.0,30.14,NE,54,3.0,8.0,53,0.00,,,0.00,,2013-09-13 16:43:00,
2013-09-13 11:54:00,64.0,45.0,30.14,NW,323,3.0,8.0,51,0.00,,,0.00,,2013-09-13 16:54:00,
2013-09-13 12:13:00,64.0,46.0,30.14,NNE,23,4.0,11.0,52,0.00,,,0.00,,2013-09-13 17:13:00,
2013-09-13 12:24:00,65.0,46.0,30.13,North,9,4.0,10.0,50,0.00,,,0.00,,2013-09-13 17:24:00,
2013-09-13 12:44:00,66.0,47.0,30.13,NW,309,2.0,8.0,50,0.00,,,0.00,,2013-09-13 17:44:00,
2013-09-13 12:53:00,66.0,46.0,30.12,East,86,5.0,11.0,48,0.00,,,0.00,,2013-09-13 17:53:00,
2013-09-13 13:12:00,66.0,46.0,30.12,ENE,72,5.0,9.0,49,0.00,,,0.00,,2013-09-13 18:12:00,
2013-09-13 13:22:00,66.0,46.0,30.11,NNW,340,2.0,10.0,49,0.00,,,0.00,,2013-09-13 18:22:00,
2013-09-13 13:42:00,67.0,45.0,30.11,NE,42,4.0,11.0,45,0.00,,,0.00,,2013-09-13 18:42:00,
2013-09-13 13:52:00,67.0,45.0,30.11,NNE,31,5.0,9.0,45,0.00,,,0.00,,2013-09-13 18:52:00,
2013-09-13 14:11:00,67.0,46.0,30.11,East,88,6.0,10.0,47,0.00,,,0.00,,2013-09-13 19:11:00,
2013-09-13 14:22:00,68.0,46.0,30.10,East,92,4.0,9.0,46,0.00,,,0.00,,2013-09-13 19:22:00,
2013-09-13 14:43:00,68.0,46.0,30.10,NNW,347,1.0,9.0,45,0.00,,,0.00,,2013-09-13 19:43:00,
2013-09-13 14:52:00,68.0,45.0,30.10,NNE,22,3.0,10.0,44,0.00,,,0.00,,2013-09-13 19:52:00,
2013-09-13 15:11:00,69.0,46.0,30.09,North,355,2.0,9.0,43,0.00,,,0.00,,2013-09-13 20:11:00,
2013-09-13 15:22:00,69.0,46.0,30.09,NNE,12,3.0,12.0,43,0.00,,,0.00,,2013-09-13 20:22:00,
2013-09-13 15:52:00,69.0,44.0,30.09,NW,319,1.0,9.0,40,0.00,,,0.00,,2013-09-13 20:52:00,
2013-09-13 16:12:00,69.0,43.0,30.08,NNE,17,3.0,9.0,39,0.00,,,0.00,,2013-09-13 21:12:00,
2013-09-13 16:22:00,69.0,43.0,30.08,NW,320,3.0,7.0,39,0.00,,,0.00,,2013-09-13 21:22:00,
2013-09-13 16:54:00,69.0,41.0,30.08,North,360,5.0,9.0,36,0.00,,,0.00,,2013-09-13 21:54:00,
2013-09-13 17:13:00,69.0,42.0,30.08,NE,42,4.0,11.0,37,0.00,,,0.00,,2013-09-13 22:13:00,
2013-09-13 17:24:00,69.0,42.0,30.08,NNE,22,5.0,10.0,37,0.00,,,0.00,,2013-09-13 22:24:00,
2013-09-13 17:43:00,68.0,43.0,30.08,NNE,27,2.0,9.0,41,0.00,,,0.00,,2013-09-13 22:43:00,
2013-09-13 17:53:00,68.0,43.0,30.08,North,9,3.0,9.0,40,0.00,,,0.00,,2013-09-13 22:53:00,
2013-09-13 18:12:00,67.0,41.0,30.08,NNE,23,4.0,9.0,39,0.00,,,0.00,,2013-09-13 23:12:00,
2013-09-13 18:22:00,67.0,42.0,30.08,North,360,3.0,10.0,40,0.00,,,0.00,,2013-09-13 23:22:00,
2013-09-13 18:53:00,66.0,43.0,30.09,NNE,24,1.0,5.0,43,0.00,,,0.00,,2013-09-13 23:53:00,
2013-09-13 19:12:00,64.0,42.0,30.08,NNE,26,1.0,6.0,45,0.00,,,0.00,,2013-09-14 00:12:00,
2013-09-13 19:22:00,62.0,43.0,30.08,North,360,0.0,5.0,49,0.00,,,0.00,,2013-09-14 00:22:00,
2013-09-13 19:42:00,60.0,43.0,30.08,NE,37,0.0,3.0,54,0.00,,,0.00,,2013-09-14 00:42:00,
2013-09-13 19:52:00,59.0,43.0,30.09,NNE,15,0.0,3.0,56,0.00,,,0.00,,2013-09-14 00:52:00,
2013-09-13 20:11:00,59.0,43.0,30.09,NE,38,0.0,4.0,56,0.00,,,0.00,,2013-09-14 01:11:00,
2013-09-13 20:22:00,58.0,42.0,30.09,NNE,13,0.0,3.0,56,0.00,,,0.00,,2013-09-14 01:22:00,
2013-09-13 20:42:00,58.0,43.0,30.09,North,5,0.0,3.0,57,0.00,,,0.00,,2013-09-14 01:42:00,
2013-09-13 20:52:00,57.0,42.0,30.10,NNE,17,0.0,2.0,58,0.00,,,0.00,,2013-09-14 01:52:00,
2013-09-13 21:12:00,55.0,44.0,30.11,NE,53,1.0,3.0,66,0.00,,,0.00,,2013-09-14 02:12:00,
2013-09-13 21:22:00,52.0,44.0,30.11,NE,54,0.0,1.0,73,0.00,,,0.00,,2013-09-14 02:22:00,
2013-09-13 22:12:00,50.0,44.0,30.11,NE,54,0.0,2.0,81,0.00,,,0.00,,2013-09-14 03:12:00,
2013-09-13 22:22:00,49.0,43.0,30.11,NE,54,0.0,0.0,81,0.00,,,0.00,,2013-09-14 03:22:00,
2013-09-13 22:55:00,48.0,43.0,30.11,NE,54,0.0,0.0,84,0.00,,,0.00,,2013-09-14 03:55:00,
2013-09-13 23:14:00,47.0,43.0,30.12,NE,54,0.0,0.0,85,0.00,,,0.00,,2013-09-14 04:14:00,
2013-09-13 23:24:00,46.0,42.0,30.12,NE,54,0.0,0.0,86,0.00,,,0.00,,2013-09-14 04:24:00,
2013-09-13 23:43:00,46.0,43.0,30.12,NE,54,0.0,0.0,88,0.00,,,0.00,,2013-09-14 04:43:00,